| time (UTC) | temp F | wind direction | speed MPH | gust MPH | rain 1hr in | rain 24hr in | rain mn in | humidity % | barometer mb |
| 20260504050323 | 44 | 85 | 0.0 | 0.0 | 0.00 | 0.00 | 0.00 | 80 | 1017.3 |
| 20260504045820 | 45 | 86 | 0.0 | 0.0 | 0.00 | 0.00 | 0.00 | 78 | 1016.9 |
| 20260504045320 | 45 | 81 | 0.0 | 0.0 | 0.00 | 0.00 | 0.00 | 76 | 1017.1 |
| 20260504044817 | 45 | 75 | 0.0 | 0.0 | 0.00 | 0.00 | 0.00 | 76 | 1017.0 |
| 20260504044314 | 45 | 67 | 0.0 | 0.0 | 0.00 | 0.00 | 0.00 | 75 | 1016.9 |
| 20260504043812 | 44 | 71 | 0.0 | 0.0 | 0.00 | 0.00 | 0.00 | 75 | 1016.8 |
| 20260504043308 | 44 | 84 | 0.0 | 0.0 | 0.00 | 0.00 | 0.00 | 79 | 1016.8 |
| 20260504042806 | 44 | 71 | 0.0 | 0.0 | 0.00 | 0.00 | 0.00 | 78 | 1017.0 |
| 20260504042304 | 44 | 71 | 0.0 | 0.0 | 0.00 | 0.00 | 0.00 | 80 | 1016.9 |
| 20260504041759 | 44 | 71 | 0.0 | 0.0 | 0.00 | 0.00 | 0.00 | 79 | 1016.8 |
| 20260504041255 | 44 | 67 | 0.0 | 0.0 | 0.00 | 0.00 | 0.00 | 79 | 1016.8 |
| 20260504040751 | 44 | 73 | 0.0 | 0.0 | 0.00 | 0.00 | 0.00 | 79 | 1016.8 |
| 20260504040249 | 44 | 78 | 0.0 | 0.0 | 0.00 | 0.00 | 0.00 | 79 | 1016.8 |
| 20260504035744 | 44 | 75 | 0.0 | 0.0 | 0.00 | 0.00 | 0.00 | 78 | 1017.0 |
| 20260504035242 | 44 | 75 | 0.0 | 0.0 | 0.00 | 0.00 | 0.00 | 78 | 1016.9 |
| 20260504034739 | 44 | 75 | 0.0 | 0.0 | 0.00 | 0.00 | 0.00 | 76 | 1016.9 |
| 20260504034236 | 44 | 76 | 0.0 | 0.0 | 0.00 | 0.00 | 0.00 | 78 | 1017.0 |
| 20260504033734 | 45 | 67 | 0.0 | 0.0 | 0.00 | 0.00 | 0.00 | 78 | 1016.8 |
| 20260504033231 | 45 | 65 | 0.0 | 0.0 | 0.00 | 0.00 | 0.00 | 77 | 1016.9 |
| 20260504032728 | 45 | 56 | 0.0 | 0.0 | 0.00 | 0.00 | 0.00 | 76 | 1016.9 |
| 20260504032225 | 44 | 68 | 0.0 | 1.0 | 0.00 | 0.00 | 0.00 | 78 | 1016.8 |
| 20260504031722 | 44 | 87 | 0.0 | 0.0 | 0.00 | 0.00 | 0.00 | 77 | 1016.7 |
| 20260504031219 | 44 | 86 | 0.0 | 0.0 | 0.00 | 0.00 | 0.00 | 76 | 1016.7 |
| 20260504030715 | 44 | 70 | 0.0 | 0.0 | 0.00 | 0.00 | 0.00 | 76 | 1016.8 |
| 20260504030213 | 44 | 64 | 0.0 | 0.0 | 0.00 | 0.00 | 0.00 | 76 | 1016.7 |
| 20260504025709 | 44 | 78 | 0.0 | 0.0 | 0.00 | 0.00 | 0.00 | 77 | 1016.5 |
| 20260504025205 | 44 | 78 | 0.0 | 0.0 | 0.00 | 0.00 | 0.00 | 75 | 1016.7 |
| 20260504024703 | 43 | 78 | 0.0 | 0.0 | 0.00 | 0.00 | 0.00 | 76 | 1016.5 |
| 20260504024159 | 43 | 76 | 0.0 | 0.0 | 0.00 | 0.00 | 0.00 | 75 | 1016.8 |
| 20260504023656 | 43 | 76 | 0.0 | 0.0 | 0.00 | 0.00 | 0.00 | 76 | 1016.5 |
| 20260504023152 | 43 | 76 | 0.0 | 0.0 | 0.00 | 0.00 | 0.00 | 76 | 1016.7 |
| 20260504022648 | 43 | 76 | 0.0 | 0.0 | 0.00 | 0.00 | 0.00 | 74 | 1016.7 |
| 20260504022144 | 43 | 76 | 0.0 | 0.0 | 0.00 | 0.00 | 0.00 | 73 | 1016.8 |
| 20260504021642 | 43 | 76 | 0.0 | 0.0 | 0.00 | 0.00 | 0.00 | 76 | 1016.7 |
| 20260504021138 | 43 | 76 | 0.0 | 0.0 | 0.00 | 0.00 | 0.00 | 69 | 1016.7 |
| 20260504020636 | 43 | 76 | 0.0 | 0.0 | 0.00 | 0.00 | 0.00 | 72 | 1016.8 |
| 20260504020131 | 43 | 76 | 0.0 | 0.0 | 0.00 | 0.00 | 0.00 | 72 | 1016.7 |
| 20260504015628 | 43 | 76 | 0.0 | 0.0 | 0.00 | 0.00 | 0.00 | 75 | 1016.7 |
| 20260504015125 | 43 | 76 | 0.0 | 0.0 | 0.00 | 0.00 | 0.00 | 76 | 1016.7 |
| 20260504014621 | 42 | 78 | 0.0 | 0.0 | 0.00 | 0.00 | 0.00 | 70 | 1016.6 |
| 20260504014118 | 42 | 78 | 0.0 | 0.0 | 0.00 | 0.00 | 0.00 | 71 | 1016.6 |
| 20260504013615 | 42 | 77 | 0.0 | 0.0 | 0.00 | 0.00 | 0.00 | 70 | 1016.5 |
| 20260504013112 | 42 | 77 | 0.0 | 0.0 | 0.00 | 0.00 | 0.00 | 70 | 1016.6 |
| 20260504012610 | 42 | 77 | 0.0 | 0.0 | 0.00 | 0.00 | 0.00 | 70 | 1016.5 |
| 20260504012107 | 43 | 71 | 0.0 | 0.0 | 0.00 | 0.00 | 0.00 | 70 | 1016.3 |
| 20260504011604 | 43 | 64 | 0.0 | 0.0 | 0.00 | 0.00 | 0.00 | 70 | 1016.2 |
| 20260504011100 | 43 | 77 | 0.0 | 0.0 | 0.00 | 0.00 | 0.00 | 70 | 1016.2 |
| 20260504010556 | 44 | 78 | 0.0 | 0.0 | 0.00 | 0.00 | 0.00 | 66 | 1016.4 |
| 20260504010052 | 44 | 76 | 0.0 | 0.0 | 0.00 | 0.00 | 0.00 | 69 | 1016.3 |
| 20260504005549 | 45 | 76 | 0.0 | 0.0 | 0.00 | 0.00 | 0.00 | 66 | 1016.4 |
| 20260504005046 | 46 | 70 | 0.0 | 0.0 | 0.00 | 0.00 | 0.00 | 65 | 1016.4 |
| 20260504004544 | 46 | 71 | 0.0 | 0.0 | 0.00 | 0.00 | 0.00 | 65 | 1015.8 |
| 20260504004041 | 46 | 71 | 0.0 | 0.0 | 0.00 | 0.00 | 0.00 | 65 | 1015.8 |
| 20260504003537 | 46 | 76 | 0.0 | 0.0 | 0.00 | 0.00 | 0.00 | 60 | 1016.1 |
| 20260504003034 | 47 | 78 | 0.0 | 0.0 | 0.00 | 0.00 | 0.00 | 61 | 1016.0 |
| 20260504002531 | 48 | 78 | 0.0 | 0.0 | 0.00 | 0.00 | 0.00 | 69 | 1016.0 |
| 20260504002028 | 48 | 66 | 0.0 | 0.0 | 0.00 | 0.00 | 0.00 | 63 | 1016.0 |
| 20260504001526 | 49 | 78 | 0.0 | 0.0 | 0.00 | 0.00 | 0.00 | 60 | 1016.1 |
| 20260504001022 | 50 | 66 | 1.0 | 1.0 | 0.00 | 0.00 | 0.00 | 60 | 1016.0 |
| 20260504000519 | 50 | 65 | 0.0 | 0.0 | 0.00 | 0.00 | 0.00 | 57 | 1015.6 |
| 20260504000017 | 51 | 64 | 0.0 | 0.0 | 0.00 | 0.00 | 0.00 | 53 | 1016.0 |
| 20260503235515 | 52 | 61 | 1.0 | 1.0 | 0.00 | 0.00 | 0.00 | 51 | 1016.1 |
| 20260503235011 | 54 | 123 | 1.0 | 1.0 | 0.00 | 0.00 | 0.00 | 43 | 1016.1 |
| 20260503234509 | 55 | 72 | 0.0 | 0.0 | 0.00 | 0.00 | 0.00 | 45 | 1016.0 |
| 20260503234007 | 56 | 213 | 0.0 | 1.0 | 0.00 | 0.00 | 0.00 | 41 | 1016.2 |
| 20260503233503 | 56 | 191 | 2.0 | 3.0 | 0.00 | 0.00 | 0.00 | 39 | 1016.0 |
| 20260503232959 | 56 | 174 | 2.0 | 2.0 | 0.00 | 0.00 | 0.00 | 38 | 1015.8 |
| 20260503232456 | 57 | 5 | 0.0 | 0.0 | 0.00 | 0.00 | 0.00 | 40 | 1016.2 |
| 20260503231954 | 58 | 238 | 3.0 | 3.0 | 0.00 | 0.00 | 0.00 | 40 | 1016.3 |
| 20260503231451 | 57 | 138 | 2.0 | 2.0 | 0.00 | 0.00 | 0.00 | 41 | 1016.2 |
| 20260503230948 | 58 | 313 | 1.0 | 1.0 | 0.00 | 0.00 | 0.00 | 37 | 1016.1 |
| 20260503230444 | 58 | 273 | 4.0 | 4.0 | 0.00 | 0.00 | 0.00 | 37 | 1016.0 |
| 20260503225942 | 58 | 148 | 1.0 | 3.0 | 0.00 | 0.00 | 0.00 | 37 | 1015.8 |
| 20260503225439 | 58 | 257 | 3.0 | 4.0 | 0.00 | 0.00 | 0.00 | 38 | 1016.2 |
| 20260503224934 | 59 | 300 | 2.0 | 2.0 | 0.00 | 0.00 | 0.00 | 35 | 1016.2 |
| 20260503224431 | 59 | 234 | 2.0 | 3.0 | 0.00 | 0.00 | 0.00 | 34 | 1016.2 |
| 20260503223929 | 60 | 86 | 0.0 | 0.0 | 0.00 | 0.00 | 0.00 | 36 | 1016.5 |
| 20260503223427 | 59 | 69 | 0.0 | 1.0 | 0.00 | 0.00 | 0.00 | 36 | 1016.3 |
| 20260503222922 | 59 | 257 | 2.0 | 3.0 | 0.00 | 0.00 | 0.00 | 35 | 1016.4 |
| 20260503222421 | 59 | 301 | 2.0 | 3.0 | 0.00 | 0.00 | 0.00 | 37 | 1016.2 |
| 20260503221919 | 59 | 273 | 2.0 | 3.0 | 0.00 | 0.00 | 0.00 | 36 | 1016.4 |
| 20260503221417 | 59 | 81 | 1.0 | 2.0 | 0.00 | 0.00 | 0.00 | 37 | 1016.4 |
| 20260503220913 | 60 | 256 | 1.0 | 2.0 | 0.00 | 0.00 | 0.00 | 35 | 1016.3 |
| 20260503220410 | 60 | 167 | 4.0 | 4.0 | 0.00 | 0.00 | 0.00 | 34 | 1016.2 |
| 20260503215907 | 59 | 264 | 4.0 | 6.0 | 0.00 | 0.00 | 0.00 | 35 | 1016.2 |
| 20260503215404 | 60 | 245 | 5.0 | 6.0 | 0.00 | 0.00 | 0.00 | 32 | 1016.2 |
| 20260503214901 | 59 | 131 | 2.0 | 3.0 | 0.00 | 0.00 | 0.00 | 34 | 1016.2 |
| 20260503214358 | 59 | 158 | 3.0 | 3.0 | 0.00 | 0.00 | 0.00 | 35 | 1016.2 |
| 20260503213856 | 59 | 119 | 1.0 | 1.0 | 0.00 | 0.00 | 0.00 | 33 | 1016.3 |
| 20260503213354 | 59 | 90 | 0.0 | 1.0 | 0.00 | 0.00 | 0.00 | 36 | 1016.4 |
| 20260503212850 | 59 | 304 | 4.0 | 7.0 | 0.00 | 0.00 | 0.00 | 35 | 1016.4 |
| 20260503212348 | 58 | 327 | 6.0 | 7.0 | 0.00 | 0.00 | 0.00 | 35 | 1016.1 |
| 20260503211845 | 59 | 318 | 4.0 | 4.0 | 0.00 | 0.00 | 0.00 | 35 | 1016.2 |
| 20260503211342 | 59 | 115 | 1.0 | 2.0 | 0.00 | 0.00 | 0.00 | 35 | 1016.3 |
| 20260503210837 | 59 | 15 | 2.0 | 3.0 | 0.00 | 0.00 | 0.00 | 38 | 1016.5 |
| 20260503210334 | 59 | 299 | 4.0 | 6.0 | 0.00 | 0.00 | 0.00 | 35 | 1016.5 |
| 20260503205829 | 58 | 338 | 6.0 | 8.0 | 0.00 | 0.00 | 0.00 | 35 | 1016.5 |
| 20260503205326 | 58 | 291 | 5.0 | 6.0 | 0.00 | 0.00 | 0.00 | 33 | 1016.7 |
| 20260503204822 | 58 | 336 | 1.0 | 2.0 | 0.00 | 0.00 | 0.00 | 33 | 1016.5 |
| 20260503204320 | 59 | 294 | 4.0 | 4.0 | 0.00 | 0.00 | 0.00 | 34 | 1016.6 |
| 20260503203817 | 59 | 287 | 4.0 | 4.0 | 0.00 | 0.00 | 0.00 | 35 | 1016.8 |
| 20260503203315 | 60 | 0 | 4.0 | 4.0 | 0.00 | 0.00 | 0.00 | 37 | 1016.7 |
| 20260503202811 | 59 | 243 | 5.0 | 7.0 | 0.00 | 0.00 | 0.00 | 36 | 1016.9 |
| 20260503202309 | 59 | 256 | 6.0 | 10.0 | 0.00 | 0.00 | 0.00 | 35 | 1016.8 |
| 20260503201807 | 59 | 75 | 1.0 | 1.0 | 0.00 | 0.00 | 0.00 | 34 | 1016.9 |
| 20260503201304 | 60 | 53 | 1.0 | 3.0 | 0.00 | 0.00 | 0.00 | 38 | 1017.1 |
| 20260503200802 | 58 | 233 | 2.0 | 3.0 | 0.00 | 0.00 | 0.00 | 36 | 1017.1 |
| 20260503200257 | 57 | 357 | 1.0 | 2.0 | 0.00 | 0.00 | 0.00 | 32 | 1017.2 |
| 20260503195755 | 57 | 267 | 3.0 | 3.0 | 0.00 | 0.00 | 0.00 | 36 | 1017.4 |
| 20260503195251 | 58 | 273 | 2.0 | 3.0 | 0.00 | 0.00 | 0.00 | 43 | 1017.5 |
| 20260503194749 | 59 | 231 | 4.0 | 6.0 | 0.00 | 0.00 | 0.00 | 38 | 1017.5 |
| 20260503194244 | 57 | 104 | 1.0 | 1.0 | 0.00 | 0.00 | 0.00 | 37 | 1017.8 |
| 20260503193741 | 57 | 150 | 1.0 | 1.0 | 0.00 | 0.00 | 0.00 | 38 | 1017.8 |
| 20260503193237 | 58 | 27 | 1.0 | 1.0 | 0.00 | 0.00 | 0.00 | 35 | 1017.9 |
| 20260503192733 | 58 | 77 | 1.0 | 1.0 | 0.00 | 0.00 | 0.00 | 38 | 1017.9 |
| 20260503192228 | 55 | 124 | 3.0 | 3.0 | 0.00 | 0.00 | 0.00 | 37 | 1017.9 |
| 20260503191725 | 56 | 325 | 3.0 | 3.0 | 0.00 | 0.00 | 0.00 | 38 | 1018.0 |
| 20260503191222 | 56 | 285 | 5.0 | 7.0 | 0.00 | 0.00 | 0.00 | 40 | 1018.2 |
| 20260503190719 | 58 | 314 | 7.0 | 9.0 | 0.00 | 0.00 | 0.00 | 39 | 1018.3 |
| 20260503190215 | 56 | 74 | 0.0 | 0.0 | 0.00 | 0.00 | 0.00 | 44 | 1018.4 |
| 20260503185713 | 56 | 262 | 4.0 | 6.0 | 0.00 | 0.00 | 0.00 | 39 | 1018.7 |
| 20260503185208 | 56 | 235 | 5.0 | 6.0 | 0.00 | 0.00 | 0.00 | 41 | 1018.4 |
| 20260503184703 | 56 | 327 | 8.0 | 9.0 | 0.00 | 0.00 | 0.00 | 41 | 1018.6 |
| 20260503184200 | 57 | 263 | 1.0 | 1.0 | 0.00 | 0.00 | 0.00 | 42 | 1018.5 |
| 20260503183656 | 55 | 346 | 2.0 | 2.0 | 0.00 | 0.00 | 0.00 | 38 | 1018.6 |
| 20260503183153 | 55 | 135 | 1.0 | 2.0 | 0.00 | 0.00 | 0.00 | 44 | 1018.6 |
| 20260503182651 | 55 | 54 | 0.0 | 2.0 | 0.00 | 0.00 | 0.00 | 46 | 1018.7 |
| 20260503182150 | 53 | 55 | 1.0 | 1.0 | 0.00 | 0.00 | 0.00 | 39 | 1018.7 |
| 20260503181646 | 55 | 289 | 2.0 | 2.0 | 0.00 | 0.00 | 0.00 | 40 | 1019.0 |
| 20260503181143 | 55 | 241 | 3.0 | 6.0 | 0.00 | 0.00 | 0.00 | 39 | 1018.7 |
| 20260503180640 | 55 | 38 | 1.0 | 2.0 | 0.00 | 0.00 | 0.00 | 38 | 1019.0 |
| 20260503180138 | 53 | 292 | 6.0 | 7.0 | 0.00 | 0.00 | 0.00 | 37 | 1018.9 |
| 20260503175635 | 55 | 85 | 1.0 | 2.0 | 0.00 | 0.00 | 0.00 | 36 | 1019.0 |
| 20260503175131 | 54 | 325 | 5.0 | 6.0 | 0.00 | 0.00 | 0.00 | 42 | 1019.2 |
| 20260503174628 | 53 | 9 | 4.0 | 6.0 | 0.00 | 0.00 | 0.00 | 38 | 1019.0 |
| 20260503174126 | 53 | 57 | 3.0 | 4.0 | 0.00 | 0.00 | 0.00 | 39 | 1019.0 |
| 20260503173620 | 54 | 283 | 3.0 | 4.0 | 0.00 | 0.00 | 0.00 | 47 | 1019.0 |
| 20260503173117 | 54 | 155 | 3.0 | 4.0 | 0.00 | 0.00 | 0.00 | 42 | 1019.2 |
| 20260503172614 | 53 | 131 | 2.0 | 3.0 | 0.00 | 0.00 | 0.00 | 39 | 1019.2 |
| 20260503172112 | 52 | 147 | 2.0 | 2.0 | 0.00 | 0.00 | 0.00 | 43 | 1019.5 |
| 20260503171608 | 53 | 272 | 7.0 | 11.0 | 0.00 | 0.00 | 0.00 | 45 | 1019.7 |
| 20260503171105 | 52 | 106 | 2.0 | 3.0 | 0.00 | 0.00 | 0.00 | 45 | 1019.8 |
| 20260503170601 | 51 | 132 | 1.0 | 2.0 | 0.00 | 0.00 | 0.00 | 41 | 1019.8 |
| 20260503150948 | 48 | 109 | 1.0 | 1.0 | 0.00 | 0.00 | 0.00 | 52 | 1020.4 |
| 20260503150444 | 48 | 157 | 2.0 | 3.0 | 0.00 | 0.00 | 0.00 | 47 | 1020.6 |
| 20260503131331 | 44 | 21 | 4.0 | 4.0 | 0.00 | 0.00 | 0.00 | 55 | 1020.4 |
| 20260503130829 | 45 | 297 | 3.0 | 3.0 | 0.00 | 0.00 | 0.00 | 58 | 1020.3 |
| 20260503130326 | 44 | 127 | 1.0 | 1.0 | 0.00 | 0.00 | 0.00 | 63 | 1020.4 |
| 20260503110720 | 28 | 74 | 0.0 | 0.0 | 0.00 | 0.00 | 0.00 | 97 | 1019.4 |
| 20260503110217 | 28 | 74 | 0.0 | 0.0 | 0.00 | 0.00 | 0.00 | 97 | 1019.0 |
| 20260503100144 | 28 | 71 | 0.0 | 0.0 | 0.00 | 0.00 | 0.00 | 96 | 1018.5 |
| 20260503081538 | 31 | 65 | 0.0 | 0.0 | 0.00 | 0.00 | 0.00 | 92 | 1017.7 |
| 20260503081036 | 31 | 69 | 0.0 | 0.0 | 0.00 | 0.00 | 0.00 | 92 | 1017.5 |
| 20260503080532 | 31 | 68 | 0.0 | 0.0 | 0.00 | 0.00 | 0.00 | 92 | 1017.5 |
| 20260503072506 | 33 | 66 | 0.0 | 0.0 | 0.00 | 0.00 | 0.00 | 88 | 1017.3 |
| 20260503072003 | 34 | 59 | 0.0 | 0.0 | 0.00 | 0.00 | 0.00 | 88 | 1017.2 |
| 20260503071500 | 34 | 61 | 0.0 | 0.0 | 0.00 | 0.00 | 0.00 | 87 | 1017.4 |
| 20260503070955 | 34 | 68 | 0.0 | 0.0 | 0.00 | 0.00 | 0.00 | 87 | 1017.1 |
| 20260503070453 | 35 | 59 | 0.0 | 0.0 | 0.00 | 0.00 | 0.00 | 86 | 1017.2 |